CAPE
0 0 0 0 0 0 0 0 0 0 0 0 0 0 0 0 0 0 0 0 0 0 0 0 0 0 0 0 0 1 2 2 2 4 5 7 7 7
0 0 0 0 0 0 0 0 0 0 0 0 0 0 0 0 0 0 0 0 0 0 0 0 0 0 0 1 2 1 3 5 6 7 7 10 12 15
0 0 0 0 0 0 0 0 0 0 0 0 0 0 0 0 0 0 0 0 0 0 0 0 0 0 1 2 4 3 5 7 10 13 12 11 12 13
0 0 0 0 0 0 0 0 0 0 0 0 0 0 0 0 0 0 0 0 0 0 0 0 0 0 1 4 3 6 1 0 0 0 4 6 9 11
0 0 0 0 0 0 0 0 0 0 0 0 0 0 0 0 0 0 0 0 0 0 0 0 0 0 4 2 3 4 0 0 0 0 0 2 10 11
0 0 0 0 0 0 0 0 0 0 0 0 0 0 0 0 0 0 0 0 0 0 0 0 0 0 0 0 0 0 0 0 0 0 0 1 2 7
0 0 0 0 0 0 0 0 0 0 0 0 0 0 0 0 0 0 0 0 0 0 0 0 0 0 0 0 0 0 0 0 0 0 1 2 4 9
0 0 0 0 0 0 1 5 0 0 0 0 0 0 0 0 0 0 0 0 0 0 0 0 0 0 0 0 0 0 0 0 0 1 4 11 13 15
0 0 0 0 0 0 0 1 1 1 6 0 0 0 0 0 0 0 0 0 0 0 0 0 0 0 0 0 0 0 0 0 1 3 7 18 17 16
0 0 0 0 0 0 0 0 0 0 0 0 0 0 0 0 0 0 0 0 0 0 0 0 0 0 0 0 0 0 0 0 1 2 8 11 17 16
0 0 0 0 0 3 1 0 0 0 0 1 5 11 11 13 1 0 0 0 0 0 0 0 0 0 0 0 0 0 0 1 1 1 4 6 8 11
0 0 0 0 4 10 2 0 0 0 0 0 0 0 0 0 1 0 0 0 0 0 0 0 0 0 0 0 0 0 0 0 0 0 0 1 2 0
0 0 0 0 5 8 10 0 0 0 0 0 0 0 0 0 0 0 0 0 0 0 0 0 0 0 0 0 0 0 0 0 0 0 0 0 0 0
0 0 0 2 17 20 12 17 22 18 0 0 0 0 0 0 0 0 0 0 0 0 0 0 0 0 0 0 0 0 0 0 0 0 0 0 0 0
0 0 6 10 15 8 6 20 40 5 0 0 0 0 0 0 0 0 0 0 0 0 0 0 0 0 0 0 0 0 0 0 0 0 0 0 0 0
0 0 0 0 0 1 3 0 0 1 1 0 0 1 0 0 0 0 0 0 0 0 0 0 0 0 0 0 0 0 0 0 0 0 0 0 0 0
0 0 0 0 0 0 0 0 0 0 0 0 0 0 0 0 0 0 0 0 0 0 0 0 0 0 0 0 0 0 0 0 0 0 0 0 0 0
12 0 0 1 0 0 0 0 0 0 0 0 0 0 0 0 0 0 0 0 0 0 0 0 0 0 0 0 3 2 1 1 0 0 0 2 0 0
0 0 0 0 0 0 0 0 0 0 0 0 0 0 0 0 0 0 0 0 0 0 0 0 0 0 0 0 0 0 0 0 0 0 0 0 0 0
0 0 0 0 0 0 0 0 0 0 0 0 0 0 0 0 0 0 0 0 0 0 0 0 0 0 0 0 0 0 0 0 0 0 0 0 0 1
0 0 0 0 0 0 0 0 0 0 0 0 0 0 0 0 0 0 0 1 1 0 0 0 0 0 0 0 0 0 0 0 0 0 0 0 0 0
0 0 0 0 0 0 0 0 0 0 0 0 0 0 0 0 0 0 0 0 0 0 0 0 0 0 0 0 0 0 0 0 0 0 2 5 0 0
0 0 0 0 0 0 0 0 0 0 0 0 0 0 0 0 0 0 0 0 0 0 0 0 0 0 0 0 1 0 0 0 0 0 0 0 1 3
CIN
-0 -0 -0 -0 -0 -0 -0 -0 -0 -0 -0 -0 -0 -0 -0 -0 -0 -0 -0 -0 -0 -0 -0 -0 -0 -0 -0 -0 -0 -0 -0 -0 -0 -0 -0 -0 -0 -0
-0 -0 -0 -0 -0 -0 -0 -0 -0 -0 -0 -0 -0 -0 -0 -0 -0 -0 -0 -0 -0 -0 -0 -0 -0 -0 -0 -0 -0 -0 -0 -0 -0 -0 -0 -0 -0 -0
-0 -0 -0 -0 -0 -0 -0 -0 -0 -0 -0 -0 -0 -0 -0 -0 -0 -0 -0 -0 -0 -0 -0 -0 -0 -0 -0 -0 -0 -0 -0 -0 -0 -0 -0 -0 -0 -0
-0 -0 -0 -0 -0 -0 -0 -0 -0 -0 -0 -0 -0 -0 -0 -0 -0 -0 -0 -0 -0 -0 -0 -0 -0 -0 -0 -0 -0 -0 -0 -0 -0 -0 -0 -0 -0 -0
-0 -0 -0 -0 -0 -0 -0 -0 -0 -0 -0 -0 -0 -0 -0 -0 -0 -0 -0 -0 -0 -0 -0 -0 -0 -0 -0 -0 -0 -0 -0 -0 -0 -0 -0 -0 -0 -0
-0 -0 -0 -0 -0 -0 -0 -0 -0 -0 -0 -0 -0 -0 -0 -0 -0 -0 -0 -0 -0 -0 -0 -0 -0 -0 -0 -0 -0 -0 -0 -0 -0 -0 -0 -0 -0 -0
-0 -0 -0 -0 -0 -0 -0 -0 -0 -0 -0 -0 -0 -0 -0 -0 -0 -0 -0 -0 -0 -0 -0 -0 -0 -0 -0 -0 -0 -0 -0 -0 -0 -0 -0 -0 -0 -0
-0 -0 -0 -0 -0 -0 -0 -0 -0 -0 -0 -0 -0 -0 -0 -0 -0 -0 -0 -0 -0 -0 -0 -0 -0 -0 -0 -0 -0 -0 -0 -0 -0 -0 -0 -0 -0 -0
-0 -0 -0 -0 -0 -0 -0 -0 -0 -1 -0 -0 -0 -0 -0 -0 -0 -0 -0 -0 -0 -0 -0 -0 -0 -0 -0 -0 -0 -0 -0 -0 -0 -0 -0 -0 -0 -0
-0 -0 -0 -0 -0 -0 -0 -0 -0 -0 -0 -0 -0 -0 -0 -0 -0 -0 -0 -0 -0 -0 -0 -0 -0 -0 -0 -0 -0 -0 -0 -0 -0 -0 -0 -0 -0 -0
-0 -0 -0 -0 -0 -0 -1 -0 -0 -0 -0 -0 -0 -0 -0 -1 -2 -0 -0 -0 -0 -0 -0 -0 -0 -0 -0 -0 -0 -0 -0 -0 -0 -0 -0 -0 -0 -0
-0 -0 -0 -0 -0 -0 -5 -0 -0 -0 -0 -0 -0 -0 -0 -0 -3 -0 -0 -0 -0 -0 -0 -0 -0 -0 -0 -0 -0 -0 -0 -0 -0 -0 -0 -0 -0 -0
-0 -0 -0 -0 -0 -0 -0 -0 -0 -0 -0 -0 -0 -0 -0 -0 -0 -0 -0 -0 -0 -0 -0 -0 -0 -0 -0 -0 -0 -0 -0 -0 -0 -0 -0 -0 -0 -0
-0 -0 -0 -0 -0 -0 -1 -0 -0 -1 -2 -0 -0 -0 -0 -0 -0 -0 -0 -0 -0 -0 -0 -0 -0 -0 -0 -0 -0 -0 -0 -0 -0 -0 -0 -0 -0 -0
-0 -0 -0 -0 -0 -3 -3 -0 -0 -8 -5 -0 -0 -0 -0 -0 -0 -0 -0 -0 -0 -0 -0 -0 -0 -0 -0 -0 -0 -0 -0 -0 -0 -0 -0 -0 -0 -0
-0 -0 -0 -0 -0 -0 -1 -0 -0 -0 -1 -1 -2 -1 -0 -0 -0 -0 -0 -0 -0 -0 -0 -0 -0 -0 -0 -0 -0 -0 -0 -0 -0 -0 -0 -0 -0 -0
-0 -0 -0 -0 -0 -0 -0 -0 -0 -0 -0 -0 -0 -0 -0 -0 -0 -0 -0 -0 -0 -0 -0 -0 -0 -0 -0 -0 -0 -0 -0 -0 -0 -0 -0 -0 -0 -0
-6 -0 -0 -0 -0 -0 -0 -0 -0 -0 -0 -0 -0 -0 -0 -0 -0 -0 -0 -0 -0 -0 -0 -0 -0 -0 -0 -0 -0 -0 -0 -0 -0 -0 -0 -0 -0 -0
-0 -0 -0 -0 -0 -0 -0 -0 -0 -0 -0 -0 -0 -0 -0 -0 -0 -0 -0 -0 -0 -0 -0 -0 -0 -0 -0 -0 -0 -0 -0 -0 -0 -0 -0 -0 -0 -0
-0 -0 -0 -0 -0 -0 -0 -0 -0 -0 -0 -0 -0 -0 -0 -0 -0 -0 -0 -0 -0 -0 -0 -0 -0 -0 -0 -0 -0 -0 -0 -0 -0 -0 -0 -0 -0 -0
-0 -0 -0 -0 -0 -0 -0 -0 -0 -0 -0 -0 -0 -0 -0 -0 -0 -0 -0 -0 -0 -0 -0 -0 -0 -0 -0 -0 -0 -0 -0 -0 -0 -0 -0 -0 -0 -0
-0 -0 -0 -0 -0 -0 -0 -0 -0 -0 -0 -0 -0 -0 -0 -0 -0 -0 -0 -0 -0 -0 -0 -0 -0 -0 -0 -0 -0 -0 -0 -0 -0 -0 -0 -0 -1 -1
-0 -0 -0 -0 -0 -0 -0 -0 -0 -0 -0 -0 -0 -0 -0 -0 -0 -0 -0 -0 -0 -0 -0 -0 -0 -0 -0 -0 -0 -0 -0 -0 -0 -0 -0 -0 -0 -0
Wind_Speed
5 5 4 3 3 3 3 2 3 3 1 1 1 2 3 3 4 5 5 11 11 10 9 8 7 7 7 7 7 8 8 9 10 10 11 12 12 11
4 5 4 3 4 4 3 3 3 2 3 1 0 0 2 2 4 4 5 9 10 10 9 8 8 7 7 7 7 7 8 8 9 10 11 11 12 13
4 5 5 4 4 4 3 3 3 2 3 0 0 0 1 2 4 4 4 4 4 10 9 8 8 7 8 7 6 6 8 9 11 11 11 11 12 12
5 5 4 3 4 4 3 3 3 2 2 1 1 1 1 1 2 3 3 3 4 7 9 9 8 8 6 7 7 6 7 7 10 11 11 11 11 12
4 4 3 3 3 2 2 2 1 2 2 2 1 0 2 1 2 2 2 3 3 8 8 8 8 8 8 9 9 8 7 9 12 13 12 12 11 11
3 2 2 2 1 1 0 0 1 1 1 1 1 2 2 1 1 1 2 1 3 4 6 5 6 7 9 8 8 8 10 12 13 13 13 13 13 13
1 0 0 2 3 4 2 3 2 2 2 2 2 1 2 1 1 1 2 3 3 2 2 2 2 3 4 7 8 10 11 13 14 14 14 13 13 14
2 2 2 3 4 7 8 7 7 4 3 3 2 3 2 2 2 2 2 1 3 1 1 3 1 4 4 4 10 11 12 13 14 13 15 14 13 13
3 3 3 3 4 1 5 9 9 12 8 5 4 4 3 4 2 2 4 3 3 3 1 4 2 4 3 4 11 13 13 14 14 15 17 15 16 16
3 4 5 5 5 5 5 5 5 5 6 5 5 6 6 6 6 4 4 3 3 5 4 3 2 3 3 4 13 15 15 16 16 15 16 16 16 16
3 4 5 6 10 12 5 5 6 7 10 16 16 16 17 18 13 4 3 4 4 3 3 2 3 3 3 4 5 11 12 10 12 16 17 17 17 18
3 5 11 9 14 15 7 7 6 8 6 5 4 8 11 9 16 6 4 4 3 4 3 3 2 1 4 2 2 2 3 12 17 18 20 21 21 9
5 5 5 13 14 15 15 5 8 8 10 7 5 5 5 5 6 5 6 5 3 4 5 2 2 1 2 3 3 5 3 7 6 9 17 20 20 16
6 6 6 15 16 17 15 15 17 16 2 4 5 5 5 6 6 6 6 6 5 7 5 4 3 3 2 4 5 5 5 5 5 8 7 13 19 20
5 9 18 19 19 10 10 13 17 6 4 2 3 4 5 5 3 3 4 5 4 5 5 4 4 5 3 5 6 7 9 3 5 8 8 7 7 7
11 8 11 14 16 14 11 7 3 3 4 5 5 3 2 2 4 4 3 2 2 3 5 6 6 5 3 6 6 9 8 5 5 7 7 8 8 8
12 5 4 5 5 5 5 5 4 5 5 6 6 6 6 6 6 4 4 2 3 3 5 2 5 6 6 8 7 8 9 10 9 10 8 9 9 9
5 3 3 3 5 6 5 5 5 8 6 5 5 6 7 7 6 5 5 5 5 5 6 4 2 1 2 7 18 11 10 10 9 8 8 9 11 9
1 1 2 2 3 4 4 5 5 5 6 5 6 7 7 7 9 6 6 5 5 6 7 5 3 4 8 10 4 14 10 8 7 8 8 8 11 12
2 2 4 3 3 3 4 6 6 6 6 7 7 7 7 7 5 5 5 5 6 6 6 5 6 7 10 10 8 7 13 8 8 10 10 9 11 23
3 3 4 5 4 5 6 6 6 5 6 6 5 5 5 4 4 4 5 12 11 6 8 8 9 17 8 5 5 9 8 20 19 12 8 9 10 11
5 7 6 6 6 6 6 6 6 7 6 6 5 5 4 5 5 6 6 7 7 7 9 7 5 4 3 9 12 13 9 9 14 22 25 23 10 11
6 6 6 6 6 6 6 6 7 7 7 6 6 6 6 6 7 7 7 7 8 8 8 8 7 6 8 9 14 11 13 12 10 11 9 22 27 30
Wind_Direction
79 81 78 60 60 59 67 83 129 143 173 229 113 14 6 27 22 19 358 347 349 343 344 352 351 346 345 344 343 349 350 350 346 343 342 339 340 339
80 79 68 54 57 53 59 60 57 112 124 190 174 26 359 357 3 12 337 349 339 336 330 330 331 332 330 326 328 333 336 341 339 334 332 333 331 331
81 84 74 70 59 52 50 54 57 63 105 81 47 330 350 353 345 341 335 327 331 330 324 319 318 317 323 319 325 344 343 353 353 344 335 329 324 322
99 95 86 86 76 66 65 69 73 51 98 113 1 348 298 301 297 313 329 328 333 328 334 335 336 329 323 341 343 351 7 3 354 339 329 326 322 319
106 101 104 94 91 87 77 77 79 76 89 115 292 281 274 289 325 309 307 313 319 327 329 330 323 324 326 327 325 328 344 332 331 331 324 318 318 316
96 94 96 91 93 75 80 157 155 138 152 164 237 261 237 285 252 291 323 296 312 312 310 323 355 15 350 341 341 333 324 315 314 316 316 312 307 309
118 96 225 243 248 213 190 233 206 222 235 229 226 239 257 289 270 251 281 299 282 251 327 334 356 325 320 327 319 313 310 312 309 306 306 301 302 305
204 240 254 289 307 291 285 256 204 180 200 188 225 223 235 234 235 254 260 315 316 289 59 297 252 288 284 298 300 316 312 307 309 297 300 300 307 309
220 230 238 233 270 250 294 289 297 294 253 201 227 217 216 222 206 248 235 219 234 268 118 289 207 274 274 283 301 303 304 302 303 302 299 300 299 298
221 234 235 253 254 250 241 251 253 262 269 268 203 226 220 234 213 226 226 234 265 267 185 235 256 257 272 263 288 295 295 296 296 296 296 297 298 300
240 242 234 242 253 265 244 227 247 254 261 267 264 249 247 246 236 205 228 229 247 227 199 201 251 268 242 261 269 293 307 318 318 313 305 301 300 297
248 238 266 261 257 262 249 217 232 246 245 250 260 267 270 275 275 259 184 214 218 281 246 185 234 336 317 278 318 286 291 301 300 301 300 298 294 291
251 247 237 264 274 274 271 204 216 240 248 249 230 238 240 238 246 240 208 206 196 212 240 160 206 252 212 287 279 279 268 284 277 281 287 290 291 289
241 251 254 276 281 278 276 269 269 269 219 208 220 233 236 237 238 227 217 210 216 223 239 180 198 193 182 284 277 291 285 270 261 272 271 274 285 286
285 267 271 276 283 299 309 305 290 280 255 210 225 229 217 229 236 235 222 214 208 225 238 212 195 237 184 240 268 279 291 284 273 269 273 267 268 269
282 281 278 279 280 279 290 312 309 283 262 242 248 237 222 194 219 212 203 183 160 267 227 227 226 196 232 240 249 263 266 265 278 270 271 275 272 264
269 248 258 265 272 269 257 244 254 256 248 255 250 244 242 236 230 201 210 193 185 231 271 244 237 233 229 242 261 250 262 264 263 273 277 275 273 267
325 21 354 307 278 271 258 257 247 261 241 236 247 244 244 232 225 220 205 198 213 231 245 253 201 344 299 258 234 256 258 261 264 261 260 271 279 268
36 294 262 268 271 282 287 288 272 259 260 250 247 243 239 234 244 213 212 209 224 237 241 235 198 215 261 265 254 242 242 251 258 263 253 248 260 274
210 252 265 258 261 258 275 276 269 266 265 257 248 246 243 231 214 211 203 209 228 243 246 233 228 225 231 249 261 261 250 257 255 261 265 261 261 271
262 250 250 258 254 258 263 266 276 278 265 258 251 238 231 219 230 223 224 240 236 225 241 241 235 239 239 247 253 259 249 246 251 254 259 261 272 278
265 269 268 260 260 257 258 258 263 267 268 271 263 256 249 237 234 234 230 233 238 244 253 260 255 242 221 250 262 271 273 269 263 262 262 260 257 263
267 266 266 261 260 259 253 256 256 259 259 256 255 254 248 245 241 240 239 240 245 250 252 260 255 242 246 246 256 264 265 266 273 277 263 256 260 263